Location: Melque
(41.0517°N, 4.4694°W)
Time: 17:38:18
(UTC+00:00)

UNK - Pass Details

Date: 11 December 2025
Orbit: 654 x 673 km, 98.4° (Epoch: 15 January)

Event Time Altitude Azimuth Distance (km) Brightness Sun altitude
Rises 17:30:52 0° 13° (NNE) 3,018 6.7 -7.8°
Reaches altitude 10° 17:33:07 10° 14° (NNE) 2,097 5.9 -8.2°
Maximum altitude 17:37:42 86° 100° (E) 671 3.7 -9.0°
Drops below altitude 10° 17:42:14 10° 193° (SSW) 2,069 6.8 -9.7°
Sets 17:44:26 0° 194° (SSW) 2,974 7.6 -10.1°
